Location: Praha
(50.0830°N, 14.4670°E)
Time: 15:00:24
(UTC+01:00)

ISS - Pass Details

Date: 08 December 2018
Orbit: 401 x 408 km, 51.6° (Epoch: 12 December)

Event Time Altitude Azimuth Distance (km) Brightness Sun altitude
Rises 17:35:51 0° 286° (WNW) 2,320 1.0 -14.5°
Reaches altitude 10° 17:37:56 10° 285° (WNW) 1,458 -0.1 -14.8°
Maximum altitude 17:41:12 80° 200° (SSW) 413 -3.8 -15.3°
Enters shadow 17:42:43 29° 115° (ESE) 772 -2.8 -15.5°
